Погода в Жилине

Россия / Калининградская область     54°54′21″N   21°55′41″E
темп.,
°C
ветер,
м/с
пор.,
м/с
влажн.,
%
обл.,
%
осадки,
мм/ч
давл.,
гПа
погр.,
м
17 июня, чт
чт1723:00+12ссв22875 0.0 102213
02:00+11в22910 0.0 102218
05:00+11юв22900 0.0 102231
08:00+17вюв34725 0.0 1023325
11:00+21юв45638 0.0 1023865
14:00+24ююв45575 0.0 10231345
17:00+24ююв34595 0.0 10221215
20:00+20вюв34805 0.0 102252
18 июня, пт
пт1823:00+16юв35855 0.0 102365
02:00+14ююв34895 0.0 102354
05:00+14юв35865 0.0 102392
08:00+20ююв46745 0.0 1022300
11:00+25ююв45635 0.0 1022955
14:00+27ююв46565 0.0 10211757
17:00+27ююв35655 0.0 10201345
20:00+23юв37815 0.0 1020143
19 июня, сб
сб1923:00+18ююв49855 0.0 1020161
02:00+16ююв39895 0.0 1020150
05:00+16ююв36885 0.0 1021108
08:00+21ююв34743 0.0 1020303
11:00+25ююв45640 0.0 1020924
14:00+27ю46570 0.0 10191757
17:00+27ююв46642 0.0 10181410
20:00+24юв36810 0.0 1017120
20 июня, вс
вс2023:00+20ююв412870 0.0 1017227
02:00+19ю3118838 0.0 1017244
05:00+19ююв4108962 0.0 1016241
08:00+22ю378172 0.0 1017372
11:00+26ююз566323 0.0 1017903
14:00+28ю455658 0.2 10161630
17:00+28ююв346193 0.0 10151754
20:00+24ююв3378100 0.1 101545
21 июня, пн
пн2123:00+20юв3585100 0.0 101591
02:00+19юв348777 0.0 101670
05:00+19юв358875 0.0 101696
08:00+23вюв467677 0.0 1015346
11:00+27юв57645 0.0 10151140
14:00+29юв57546 0.0 10142045
17:00+29вюв46610 0.0 10131594
20:00+25вюв49770 0.1 1013243